W2DRT Weather Reports


time (UTC)temp
F
wind
direction
speed
knots
gust
knots
rain 1hr
in
rain 24hr
in
rain mn
in
humidity
%
barometer
mb
20260510202022 77 0.0 0.0 0.00 0.00 0.00 49 1012.9
20260510201021 77 0.0 0.0 0.00 0.00 0.00 48 1012.9
20260510200021 78 0.0 0.0 0.00 0.00 0.00 48 1012.9
20260510195020 80 0.0 0.0 0.00 0.00 0.00 48 1012.9
20260510194018 79 0.0 0.0 0.00 0.00 0.00 50 1012.9
20260510193014 79 0.0 0.0 0.00 0.00 0.00 50 1013.3
20260510192011 79 0.0 0.0 0.00 0.00 0.00 52 1013.3
20260510191010 78 0.0 0.0 0.00 0.00 0.00 52 1013.6
20260510190010 77 0.0 0.0 0.00 0.00 0.00 52 1013.6
20260510185010 78 0.0 0.0 0.00 0.00 0.00 50 1013.6
20260510184008 79 0.0 0.0 0.00 0.00 0.00 50 1013.6
20260510183005 79 0.0 0.0 0.00 0.00 0.00 51 1013.6
20260510182002 80 0.0 0.0 0.00 0.00 0.00 52 1013.6
20260510181002 80 0.0 0.0 0.00 0.00 0.00 54 1013.6
20260510180003 79 0.0 0.0 0.00 0.00 0.00 57 1013.6
20260510175000 78 0.0 0.0 0.00 0.00 0.00 59 1013.6
20260510174001 77 0.0 0.0 0.00 0.00 0.00 60 1013.3
20260510172959 76 0.0 0.0 0.00 0.00 0.00 61 1013.6
20260510171958 75 0.0 0.0 0.00 0.00 0.00 63 1013.6
20260510170957 74 0.0 0.0 0.00 0.00 0.00 64 1014.0
20260510165954 73 0.0 0.0 0.00 0.00 0.00 65 1014.0
20260510164953 72 0.0 0.0 0.00 0.00 0.00 66 1014.0
20260510163952 71 0.0 0.0 0.00 0.00 0.00 67 1014.0
20260510162949 70 0.0 0.0 0.00 0.00 0.00 69 1014.0
20260510161948 69 0.0 0.0 0.00 0.00 0.00 70 1014.0
20260510160947 68 0.0 0.0 0.00 0.00 0.00 70 1014.0
20260510155942 67 0.0 0.0 0.00 0.00 0.00 71 1014.0
20260510154942 67 0.0 0.0 0.00 0.00 0.00 73 1014.0
20260510153937 65 0.0 0.0 0.00 0.00 0.00 74 1014.6
20260510152937 64 0.0 0.0 0.00 0.00 0.00 74 1014.3
20260510151937 64 0.0 0.0 0.00 0.00 0.00 75 1014.3
20260510150936 63 0.0 0.0 0.00 0.00 0.00 77 1014.6
20260510145933 62 0.0 0.0 0.00 0.00 0.00 77 1014.3
20260510144932 62 0.0 0.0 0.00 0.00 0.00 78 1014.3
20260510143931 61 0.0 0.0 0.00 0.00 0.00 78 1014.6
20260510142930 61 0.0 0.0 0.00 0.00 0.00 78 1014.6
20260510141929 60 0.0 0.0 0.00 0.00 0.00 80 1014.3
20260510140923 60 0.0 0.0 0.00 0.00 0.00 82 1014.6
20260510135918 59 0.0 0.0 0.00 0.00 0.00 83 1014.6
20260510134918 58 0.0 0.0 0.00 0.00 0.00 84 1014.3
20260510133916 57 0.0 0.0 0.00 0.00 0.00 85 1014.6
20260510132914 57 0.0 0.0 0.00 0.00 0.00 87 1014.6
20260510131909 56 0.0 0.0 0.00 0.00 0.00 88 1014.3
20260510130908 56 0.0 0.0 0.00 0.00 0.00 89 1014.6
20260510125908 55 0.0 0.0 0.00 0.00 0.00 89 1014.0
20260510124907 55 0.0 0.0 0.00 0.00 0.00 90 1014.3
20260510123906 54 0.0 0.0 0.00 0.00 0.00 90 1014.0
20260510122904 53 0.0 0.0 0.00 0.00 0.00 90 1014.0
20260510121901 53 0.0 0.0 0.00 0.00 0.00 92 1014.0
20260510120856 53 0.0 0.0 0.00 0.00 0.00 92 1014.0
20260510115854 52 0.0 0.0 0.00 0.00 0.00 92 1013.6
20260510114853 52 0.0 0.0 0.00 0.00 0.00 93 1013.6
20260510113851 52 0.0 0.0 0.00 0.00 0.00 93 1013.6
20260510112850 51 0.0 0.0 0.00 0.00 0.00 92 1013.6
20260510111848 51 0.0 0.0 0.00 0.00 0.00 92 1013.3
20260510110846 51 0.0 0.0 0.00 0.00 0.00 92 1013.3
20260510105845 50 0.0 0.0 0.00 0.00 0.00 92 1013.3
20260510104841 50 0.0 0.0 0.00 0.00 0.00 93 1013.3
20260510103840 50 0.0 0.0 0.00 0.00 0.00 93 1012.6
20260510102838 50 0.0 0.0 0.00 0.00 0.00 93 1012.6
20260510101838 49 0.0 0.0 0.00 0.00 0.00 94 1012.9
20260510100838 49 0.0 0.0 0.00 0.00 0.00 94 1012.9
20260510095838 49 0.0 0.0 0.00 0.00 0.00 94 1012.9
20260510094832 49 0.0 0.0 0.00 0.00 0.00 94 1012.9
20260510093830 48 0.0 0.0 0.00 0.00 0.00 94 1012.9
20260510092828 48 0.0 0.0 0.00 0.00 0.00 94 1012.6
20260510091826 48 0.0 0.0 0.00 0.00 0.00 93 1012.6
20260510090825 48 0.0 0.0 0.00 0.00 0.00 93 1012.6
20260510085824 48 0.0 0.0 0.00 0.00 0.00 92 1012.6
20260510084820 48 0.0 0.0 0.00 0.00 0.00 92 1012.3
20260510083820 48 0.0 0.0 0.00 0.00 0.00 92 1012.3
20260510082818 48 0.0 0.0 0.00 0.00 0.00 92 1012.3
20260510081814 48 0.0 0.0 0.00 0.00 0.00 92 1012.3
20260510080812 48 0.0 0.0 0.00 0.00 0.00 92 1011.9
20260510075810 47 0.0 0.0 0.00 0.00 0.00 92 1012.3
20260510074810 47 0.0 0.0 0.00 0.00 0.00 92 1011.9
20260510073809 47 0.0 0.0 0.00 0.00 0.00 91 1011.9
20260510072807 47 0.0 0.0 0.00 0.00 0.00 91 1011.9
20260510071806 47 0.0 0.0 0.00 0.00 0.00 90 1011.6
20260510070802 48 0.0 0.0 0.00 0.00 0.00 90 1011.6
20260510065758 48 0.0 0.0 0.00 0.00 0.00 90 1011.2
20260510064758 48 0.0 0.0 0.00 0.00 0.00 90 1011.2
20260510063757 48 0.0 0.0 0.00 0.00 0.00 90 1011.2
20260510062756 48 0.0 0.0 0.00 0.00 0.00 90 1011.6
20260510061753 48 0.0 0.0 0.00 0.00 0.00 90 1011.6
20260510060752 48 0.0 0.0 0.00 0.00 0.00 90 1011.6
20260510055752 49 0.0 0.0 0.00 0.00 0.00 90 1011.6
20260510054749 49 0.0 0.0 0.00 0.00 0.00 90 1011.9
20260510053745 49 0.0 0.0 0.00 0.00 0.00 90 1011.9
20260510052743 49 0.0 0.0 0.00 0.00 0.00 90 1011.9
20260510051742 49 0.0 0.0 0.00 0.00 0.00 90 1011.9
20260510050741 49 0.0 0.0 0.00 0.00 0.00 88 1011.9
20260510045741 50 0.0 0.0 0.00 0.00 0.00 88 1011.9
20260510044740 50 0.0 0.0 0.00 0.00 0.00 88 1012.3
20260510043739 50 0.0 0.0 0.00 0.00 0.00 88 1012.3
20260510042734 50 0.0 0.0 0.00 0.00 0.00 88 1012.3
20260510041732 50 0.0 0.0 0.00 0.00 0.00 88 1012.3
20260510040733 50 0.0 0.0 0.00 0.00 0.00 88 1012.3
20260510035730 51 0.0 0.0 0.00 0.00 0.00 88 1012.3
20260510034728 51 0.0 0.0 0.00 0.00 0.00 88 1011.9
20260510033728 51 0.0 0.0 0.00 0.00 0.00 88 1011.9
20260510032728 51 0.0 0.0 0.00 0.00 0.00 88 1011.9
20260510031725 51 0.0 0.0 0.00 0.00 0.00 88 1011.6
20260510030721 51 0.0 0.0 0.00 0.00 0.00 88 1011.9
20260510025716 52 0.0 0.0 0.00 0.00 0.00 88 1011.6
20260510024716 52 0.0 0.0 0.00 0.00 0.00 88 1011.9
20260510023714 52 0.0 0.0 0.00 0.00 0.00 87 1011.9
20260510022713 52 0.0 0.0 0.00 0.00 0.00 87 1011.6
20260510021709 52 0.0 0.0 0.00 0.00 0.00 87 1011.9
20260510020707 52 0.0 0.0 0.00 0.00 0.00 87 1011.2
20260510015704 53 0.0 0.0 0.00 0.00 0.00 86 1011.6
20260510014701 53 0.0 0.0 0.00 0.00 0.00 86 1011.6
20260510013659 53 0.0 0.0 0.00 0.00 0.00 85 1011.9
20260510012655 53 0.0 0.0 0.00 0.00 0.00 84 1011.9
20260510011652 53 0.0 0.0 0.00 0.00 0.00 84 1011.2
20260510010650 54 0.0 0.0 0.00 0.00 0.00 84 1011.6
20260510005649 54 0.0 0.0 0.00 0.00 0.00 83 1011.2
20260510004644 54 0.0 0.0 0.00 0.00 0.00 83 1010.9
20260510003639 54 0.0 0.0 0.00 0.00 0.00 82 1011.2
20260510002635 55 0.0 0.0 0.00 0.00 0.00 81 1011.2
20260510001634 55 0.0 0.0 0.00 0.00 0.00 80 1011.2
20260510000633 56 0.0 0.0 0.00 0.00 0.00 80 1011.2
20260509235632 57 0.0 0.0 0.00 0.00 0.00 80 1011.2
20260509234631 57 0.0 0.0 0.00 0.00 0.00 78 1010.9
20260509233626 58 0.0 0.0 0.00 0.00 0.00 78 1011.2
20260509232625 58 0.0 0.0 0.00 0.00 0.00 77 1010.9
20260509231625 59 0.0 0.0 0.00 0.00 0.00 77 1010.6
20260509230625 59 0.0 0.0 0.00 0.00 0.00 78 1010.9
20260509225623 58 0.0 0.0 0.00 0.00 0.00 77 1010.9
20260509224620 58 0.0 0.0 0.00 0.00 0.00 77 1010.9
20260509223620 58 0.0 0.0 0.00 0.00 0.00 77 1010.9
20260509222620 58 0.0 0.0 0.00 0.00 0.00 76 1011.2
20260509221618 59 0.0 0.0 0.00 0.00 0.00 74 1011.2
20260509220616 59 0.0 0.0 0.00 0.00 0.00 74 1011.2
20260509215614 59 0.0 0.0 0.00 0.00 0.00 73 1011.6
20260509214614 59 0.0 0.0 0.00 0.00 0.00 71 1011.6
20260509213613 59 0.0 0.0 0.00 0.00 0.00 68 1011.9
20260509212613 60 0.0 0.0 0.00 0.00 0.00 67 1011.9
20260509211611 61 0.0 0.0 0.00 0.00 0.00 66 1011.6
20260509210610 61 0.0 0.0 0.00 0.00 0.00 65 1011.6
20260509205608 61 0.0 0.0 0.00 0.00 0.00 65 1011.2
20260509204605 62 0.0 0.0 0.00 0.00 0.00 66 1011.2
20260509203604 61 0.0 0.0 0.00 0.00 0.00 67 1011.2
20260509202602 61 0.0 0.0 0.00 0.00 0.00 66 1011.2